sat.trackr.live / text

‹ back to catalog

STARLINK-31773

NORAD 59429 · 2024-065J

PAYLOAD ACTIVE UNKNOWN

§ Identity

Operator
Country
US
Launch date
2024-04-07
Launch site
AFWTR
Launch vehicle
Mass (kg)
RCS (m²)

Purposes: comms

External: N2YO · Heavens-Above · Gunter

§ Orbital elements

Epoch: 2026-09-21T20:17:10.735296Z

Period
93.85 min
Inclination
53.1610°
Eccentricity
0.0001024
Mean motion
15.34373301 rev/d
Perigee alt
462.1 km
Apogee alt
463.5 km
Semi-major
6,840.9 km
B*
-3.7707e-5
RAAN
91.1312°
Arg perigee
96.8852°
Mean anomaly
263.2267°
Rev number
13,895

§ Raw data

STARLINK-317731 59429U 24065J   26264.84526314 -.00001649  00000+0 -37707-4 0  99982 59429  53.1610  91.1312 0001024  96.8852 263.2267 15.34373301138953

JSON: /api/v1/satellites/59429 · /tle

For live sub-satellite position, see the globe view (requires WebGL).

§ Visibility from observer

Set your observer location to see the next 7 days of passes ≥ 10°. The values pass through the URL so the page stays shareable.

No JS? Fill the form by hand. The geolocation button needs JavaScript.